Location: Unspecified
(0.0000°N, 0.0000°E)
Time: 00:33:29
(UTC+00:00)

Envisat - Pass Details

Date: 25 June 2017
Orbit: 764 x 766 km, 98.2° (Epoch: 19 August)

Event Time Altitude Azimuth Distance (km) Brightness Sun altitude
Exits shadow 19:23:59 10° 55° (NE) 2,282 5.2 -18.6°
Drops below altitude 10° 19:24:04 10° 54° (NE) 2,296 5.2 -18.6°
Sets 19:27:49 0° 25° (NNE) 3,217 6.2 -19.4°
